Location: *
(42.3442°N, 9.2072°E)
Time: 10:53:19
(UTC+00:00)

Meteor 2-10 Rocket - Pass Details

Date: 13 August 2020
Orbit: 734 x 884 km, 81.2° (Epoch: 22 September)

Event Time Altitude Azimuth Distance (km) Brightness Sun altitude
Rises 03:19:33 0° 163° (SSE) 3,205 6.6 -12.2°
Reaches altitude 10° 03:22:01 10° 154° (SSE) 2,304 5.9 -11.8°
Maximum altitude 03:26:39 34° 90° (E) 1,277 5.3 -11.1°
Drops below altitude 10° 03:31:29 10° 27° (NNE) 2,406 7.1 -10.3°
Sets 03:34:07 0° 19° (NNE) 3,369 7.7 -9.9°
